Other Public Products
Issued by NWS Grand Forks, ND

Home | Current Version | Previous Version | Graphics & Text | Print | Product List | Glossary On
Versions: 1 2 3 4 5 6 7 8 9 10 11 12 13 14 15 16 17 18 19 20 21 22 23 24 25 26 27 28 29 30 31 32 33 34 35 36 37 38 39 40 41 42 43 44 45 46 47 48 49 50
000
FPUS83 KFGF 260910
OPUFGF
PRAIRIE TO PINES WEATHER ROUNDUP
NATIONAL WEATHER SERVICE EASTERN NORTH DAKOTA/GRAND FORKS ND
300 AM CST SUN FEB 26 2017

 **SATELLITE DATA USED TO AUGMENT SKY COVER AT AUTOMATED STATIONS**
 *****  WEATHER ACROSS EASTERN NORTH DAKOTA  *****

CITY           SKY/WX    TMP DP  RH WIND       PRES   REMARKS
GRAND FORKS    LGT SNOW  14   6  70 N13       29.75R WCI   0
GRAND FORKS AF FLURRIES  12   9  85 N12       29.75R WCI  -2
GRAND CITY NWS NOT AVBL
BUXTON         NOT AVBL
DEVILS LAKE    FLURRIES   7   5  91 NW6       29.73R WCI  -3
FARGO          FOG       20  18  92 MISG      29.69R VSB 1/2
WAHPETON ARPT  CLOUDY   N/A N/A N/A S3        29.69F
$$

 *****  WEATHER ACROSS CENTRAL AND WESTERN NORTH DAKOTA  *****

CITY           SKY/WX    TMP DP  RH WIND       PRES   REMARKS
JAMESTOWN      FAIR      18  16  92 N13       29.67R WCI   5
BISMARCK       FAIR      16  11  80 NW8       29.74R WCI   5
MINOT          MOCLDY     2  -2  83 SW5       29.73R WCI  -8
MINOT AFB      CLEAR     -6 -10  81 W7        29.73R WCI -20
GARRISON         N/A      4   1  88 NW7       29.72R WCI  -8
WILLISTON      CLOUDY     7   4  87 CALM      29.72S
DICKINSON      CLOUDY    14  11  87 E3        29.65S
HETTINGER      FAIR      12   9  87 N5        29.68R WCI   4
$$

 *****  OTHER OBSERVATIONS NORTHEAST NORTH DAKOTA  *****

CITY           SKY/WX    TMP DP  RH WIND       PRES   REMARKS
WALHALLA       NOT AVBL
LANGDON        NOT AVBL
CAVALIER         N/A      9   5  85 NW7       29.76R WCI  -3
GRAFTON        PTSUNNY   12   7  79 NW5       29.77S WCI   4
CANDO          NOT AVBL
FORT TOTTEN      N/A      9   8  96 CALM      29.95S
ROLLA          FAIR       0  -4  85 NW6       29.71R WCI -12
RUGBY          FOG       -8  -9  92 W5        29.73S VSB 1/4 WCI -19
 ***** THE ABOVE OBSERVATIONS ARE NON NWS ARE NOT QUALITY
        CONTROLLED AND MAY MIS-REPORT RAIN FOR SNOW...
$$

 *****  OTHER OBSERVATIONS SOUTHEAST NORTH DAKOTA *****

CITY           SKY/WX    TMP DP  RH WIND       PRES   REMARKS
COOPERSTOWN    LGT SNOW  14  12  92 NE13      29.69R WCI   0
VALLEY CITY    FLURRIES  18  18 100 N10       29.69R WCI   6
OAKES          NOT AVBL
GWINNER        CLOUDY    28  27  93 SW15      29.67R WCI  17
BUFFALO        NOT AVBL
WYNDMERE       NOT AVBL
 ***** THE ABOVE OBSERVATIONS ARE NON NWS ARE NOT QUALITY
       CONTROLLED AND MAY MIS-REPORT RAIN FOR SNOW...
$$

  *****  WEATHER ACROSS NORTHERN MINNESOTA  *****

CITY           SKY/WX    TMP DP  RH WIND       PRES   REMARKS
FLAG ISLAND    FAIR       9   1  72 NW10      29.69S WCI  -6
WARROAD        FAIR      10   3  72 NW7       29.71R WCI   0
ROSEAU         MOCLDY    12   7  79 NW6       29.72R WCI   3
HALLOCK        FAIR      10   3  72 NW5       29.75R WCI   2
THF RVR FALLS  LGT SNOW  12   9  87 N8        29.72S FOG     WCI   0
HALSTAD          N/A     15  12  88 N16         N/A  WCI   0
FOSSTON        LGT SNOW  14  10  85 N12       29.68S WCI   0
BAUDETTE       LGT SNOW  11   4  73 NW9       29.68R WCI  -2
WASKISH        LGT SNOW  12  10  92 NW3       29.68S
CROOKSTON      LGT SNOW  14  12  92 N10       29.74S WCI   1
$$
  *****  WEATHER ACROSS CENTRAL AND WEST MINNESOTA  *****

CITY           SKY/WX    TMP DP  RH WIND       PRES   REMARKS
BEMIDJI        CLOUDY    18  14  85 N3        29.64S
PARK RAPIDS    CLOUDY    22  18  85 S7        29.62F FOG     WCI  13
WADENA         FOG       19  18  93 CALM      29.65F VSB 1/2
DETROIT LAKES  MOCLDY    21  21 100 SW3       29.65F FOG
MOORHEAD       SNOW      21  19  93 N13       29.69R VSB 1/2 WCI   9
FERGUS FALLS   FOG       18  18 100 CALM      29.72F VSB<1/4
ELBOW LAKE     SNOW      21  20  98 CALM      29.69S VSB 1/4
MORRIS MN      FAIR      25  25 100 CALM      29.68S
STAPLES        CLOUDY    12  12 100 CALM      29.66F FOG
WHEATON        CLOUDY    25  23  93 CALM      29.72R
$$
  *****  WEATHER ELSEWHERE ACROSS MINNESOTA  *****

CITY           SKY/WX    TMP DP  RH WIND       PRES   REMARKS
DULUTH         LGT SNOW  25  22  88 SW13      29.63F FOG     WCI  14
INTRNTL FALLS  FLURRIES  12   7  80 W6        29.66S WCI   3
ELY            LGT SNOW  19  18  93 W3        29.63F
CLOQUET        LGT SNOW  25  21  86 SW6       29.65S WCI  18
BRAINERD       CLOUDY    23  22  96 SW5       29.66F WCI  17
HIBBING        CLOUDY    19  17  92 N3        29.63F
ALEXANDRIA     FAIR      24  22  91 W6        29.67S WCI  17
SAINT CLOUD    CLOUDY    26  21  81 SW9       29.70F WCI  17
MINNEAPOLIS    CLOUDY    25  16  68 S6        29.76F WCI  18
$$

  *****  WEATHER ACROSS SOUTH DAKOTA  *****

CITY           SKY/WX    TMP DP  RH WIND       PRES   REMARKS
SIOUX FALLS    FAIR      20  16  84 SW5       29.75F WCI  13
BROOKINGS      FAIR      19  17  92 S10       29.71S WCI   7
WATERTOWN      CLOUDY    22  21  96 SW9       29.69R WCI  12
HURON          MOCLDY    24  22  91 SW7       29.73R WCI  16
SISSETON         N/A     27  23  85 NW3       29.68S
ABERDEEN       FAIR      20  17  88 SW7       29.70F WCI  11
MITCHELL       FAIR      25  20  81 SW7       29.75F WCI  17
PIERRE         FAIR      25  22  88 W12       29.73R WCI  14
MOBRIDGE       FAIR      23  17  78 NW7       29.68R WCI  15
RAPID CITY     FAIR      16   8  71 W8        29.73R WCI   5
$$

  *****  SOME WEATHER IN NEARBY STATES *****

CITY           SKY/WX    TMP DP  RH WIND       PRES   REMARKS
GLASGOW MT     MOCLDY    17  13  84 SE9       29.64S WCI   6
GREAT FALLS MT CLOUDY    27  16  63 W12       29.70R WCI  17
CHEYENNE WY    FAIR      12   0  58 W10       29.75F WCI  -1
SCOTTSBLUFF NE FAIR       8   2  76 NW6       29.81S WCI  -2
OMAHA NE       MOCLDY    34  22  61 SW13      29.86S WCI  25
DES MOINES IA  FAIR      31  17  56 S13       29.87F WCI  21
DAVENPORT IA   CLOUDY    27  18  69 S12       29.98F WCI  17
CHICAGO IL     CLOUDY    24  17  74 S6        30.03F WCI  17
EAU CLAIRE WI  CLOUDY    22  15  75 S8        29.79F WCI  12
LA CROSSE WI   CLOUDY    28  18  66 S10       29.86F WCI  19
$$

  *****  SOME NATIONAL WEATHER *****

CITY           SKY/WX    TMP DP  RH WIND       PRES   REMARKS
LA GUARDIA NY  MOCLDY    43  26  51 NW23G30   29.77R
RALEIGH NC     FAIR      42  17  36 VRB3      30.00R
ATLANTA GA     FAIR      39  21  48 NW9       30.09R
NEW ORLEANS LA FAIR      54  38  54 E9        30.11R
OKLAHOMA CITY  FAIR      36  21  54 S12       29.95F
ALBUQUERQUE NM FAIR      41   9  26 W12       29.88S
SALT LAKE CITY FAIR      23  14  68 SE8       29.98S WCI  14
LOS ANGELES CA MOCLDY    52  44  74 W10       30.00F
BOISE ID       FAIR      30  18  60 SE8       29.93F WCI  22
SEATTLE WA     LGT RAIN  37  34  89 SE13      29.85F
$$

*** WEATHER ACROSS MANITOBA...SASKATCHEWAN AND ONTARIO ***
                ***ONTARIO***

CITY           SKY/WX    TMP DP  RH WIND       PRES   REMARKS
GERALDTON      CLEAR     -4  -8  84 VRB2      29.63S
THUNDER BAY    MOCLDY    10   7  85 W2        29.68F
SIOUX LOOKOUT  LGT SNOW  10   5  79 VRB2      29.58S
TORONTO        PTCLDY    25  12  58 W12       29.88R WCI  14
BIG TROUT LK   FLURRIES  -6  -9  84 W7        29.57S WCI -20
PICKLE LAKE    NOT AVBL
DRYDEN         FLURRIES  10   7  85 W13G20    29.59R WCI  -5
KENORA         FLURRIES   7   3  85 NW7       29.64S WCI  -5
$$
                *** MANITOBA***

CITY           SKY/WX    TMP DP  RH WIND       PRES   REMARKS
BRANDON        PTCLDY    -2  -8  78 W9        29.73R WCI -18
DAUPHIN        CLEAR      1  -4  78 SW9       29.73F WCI -14
ISLAND LAKE    CRYSTALS  -6 -11  77 W3        29.64S
PILOT MOUND      N/A      1  -4  78 W7          N/A  WCI -11
THE PAS        CLEAR     -6 -11  77 SE3       29.66S
THOMPSON       CLEAR    -15 -18  84 CALM      29.65F
WINNIPEG       FLURRIES  10   5  79 VRB2      29.75S
LYNN LAKE      FLURRIES -17 -22  76 NW3       29.64R
CHURCHILL      CRYSTALS -22 -27  76 NW8       29.69R WCI -41
GILLAM         FLURRIES -17 -22  76 NW7       29.63S WCI -33
$$
                ***SASKATCHEWAN***

CITY           SKY/WX    TMP DP  RH WIND       PRES   REMARKS
ESTEVAN        CRYSTALS  -2  -6  84 SW7       29.71S WCI -16
KINDERSLEY     MOCLDY    16  10  79 N9        29.66R WCI   4
LLOYDMINSTER   CLOUDY    14   9  79 NW8       29.69R WCI   3
PRINCE ALBERT  CLEAR      0  -4  85 W3        29.65R
REGINA         MOCLDY     5   3  92 S6        29.67S WCI  -6
YORKTON        CLOUDY     5   0  78 SW3       29.67S
N. BATTLEFORD  PTCLDY     7   5  92 NW5       29.69R WC



USA.gov is the U.S. government's official web portal to all federal, state and local government web resources and services.